Location: Unspecified
(0.0000°N, 0.0000°E)
Time: 10:47:25
(UTC+00:00)

Vanguard 3 - Pass Details

Date: 15 October 2022
Orbit: 509 x 3255 km, 33.3° (Epoch: 29 November)

Event Time Altitude Azimuth Distance (km) Brightness Sun altitude
Rises 18:52:22 0° 228° (SW) 6,722 12.8 -16.5°
Reaches altitude 10° 18:59:25 10° 211° (SSW) 6,024 12.1 -18.2°
Maximum altitude 19:11:15 18° 173° (S) 5,482 11.3 -21.1°
Drops below altitude 10° 19:22:48 10° 135° (SE) 5,897 11.2 -24.0°
Enters shadow 19:25:50 - 127° (SE) 6,157 11.2 -24.7°
